Tracking 33850 objects as of 19-Apr-2026
HD Live streaming from Space Station
objects crossing your sky now

SL-3 R/B

Track SL-3 R/B now!
10-day predictions
SL-3 R/B is classified as:


NORAD ID: 13068
Int'l Code: 1982-013B
Perigee: 490.0 km
Apogee: 521.8 km
Inclination: 81.2 °
Period: 94.6 minutes
Semi major axis: 6876 km
RCS: 5.3655 m2 (large)
Launch date: February 19, 1982
Source: Commonwealth of Independent States (former USSR) (CIS)
Launch site: PLESETSK MISSILE AND SPACE COMPLEX (PKMTR)

Note: This is a ROCKET BODY
Your satellite tracking list
Your tracking list is empty




NASA's NSSDC Master Catalog

Two Line Element Set (TLE):
1 13068U 82013B   26108.81298229  .00003444  00000-0  14716-3 0  9997
2 13068  81.1710 113.7245 0023123  47.3813 312.9363 15.22347115410450
Source of the keplerian elements: AFSPC